DateTimeUTC,F1_A11,F1_S11,BsB_S11,BsG_S11,BsR_S11,BbsB_S11,BbsG_S11,BbsR_S11,BaB_A11,BaG_A11,BaR_A11,Tu_S11,T_S11,Uu_S11,U_S11,P_S11,T1_A11
2021-08-12T11:00:00Z,00040200,20000000,,,,,,,0000.35,-000.32,0000.23,18.3,24.9,06.6,04.4,0675.2,31.0
2021-08-12T11:01:00Z,00040200,20000000,,,,,,,-000.16,-000.09,0000.03,18.3,24.9,06.5,04.3,0675.2,31.0
2021-08-12T11:02:00Z,00040200,20000000,,,,,,,0000.27,0000.43,0000.06,18.3,24.9,06.4,04.3,0675.2,31.0
2021-08-12T11:03:00Z,00040200,60000000,,,,,,,-000.12,0000.13,0000.37,18.3,24.9,06.4,04.3,0675.2,31.0
2021-08-12T11:04:00Z,00040200,40000000,0001.08,0000.17,0000.36,-000.10,0000.01,0000.28,0000.15,-000.08,-000.23,18.5,24.8,06.5,04.4,0676.1,31.0
2021-08-12T11:05:00Z,00040200,00000000,0000.93,0000.47,0000.30,0000.04,0000.12,0000.19,0000.18,0000.12,-000.05,18.5,24.7,06.5,04.5,0676.2,31.0
2021-08-12T11:06:00Z,00040200,00000000,0000.67,0000.27,0000.31,-000.27,-000.43,0000.07,-000.01,0000.25,0000.47,18.5,24.7,06.5,04.5,0676.2,31.0
2021-08-12T11:07:00Z,00040200,00000000,0000.76,0000.23,0000.38,-000.41,0000.17,-000.07,0000.47,0000.40,0000.27,18.5,24.7,06.6,04.5,0676.2,31.0
2021-08-12T11:08:00Z,00040200,00000000,0001.11,0000.56,0000.39,0000.11,-000.08,-000.09,0000.19,-000.18,0000.08,18.5,24.7,06.6,04.5,0676.2,31.0
2021-08-12T11:09:00Z,00040200,00000000,0001.35,0000.00,0000.36,0000.72,-000.16,0000.17,-000.12,0000.20,-000.08,18.5,24.7,06.8,04.6,0676.2,31.0
2021-08-12T11:10:00Z,00040200,00000000,0001.06,0000.81,0000.31,0000.29,0000.07,0000.21,0000.03,0000.09,0000.12,18.5,24.7,06.7,04.6,0676.3,31.0
2021-08-12T11:11:00Z,00040200,00000000,0001.02,0000.24,0000.32,0000.43,-000.13,0000.25,-000.14,-000.44,-000.47,18.5,24.7,06.7,04.6,0676.3,31.0
2021-08-12T11:12:00Z,00040200,00000000,0001.22,0000.47,0000.38,-000.34,-000.03,-000.08,0000.83,0000.30,0000.52,18.5,24.7,06.6,04.5,0676.3,31.0
2021-08-12T11:13:00Z,00040200,00000000,0001.14,0000.20,0000.38,0000.52,0000.21,-000.38,-000.65,-000.07,-000.20,18.5,24.7,06.6,04.5,0676.3,31.0
2021-08-12T11:14:00Z,00040200,00000000,0000.57,0000.54,0000.03,0000.29,-000.19,-000.11,0000.29,0000.59,0000.18,18.6,24.7,06.6,04.5,0676.3,31.0
2021-08-12T11:15:00Z,00040200,00000000,0000.80,0000.48,0000.10,0000.50,0000.08,0000.26,-000.07,-000.62,-000.17,18.6,24.7,06.5,04.5,0676.3,31.0
2021-08-12T11:16:00Z,00040200,00000000,0000.36,0000.33,-000.08,-000.31,0000.25,0000.11,0000.12,0000.35,0000.09,18.6,24.7,06.5,04.5,0676.3,31.0
2021-08-12T11:17:00Z,00040200,00000000,0001.31,0000.87,0000.27,-000.25,0000.11,-000.20,0000.06,0000.26,0000.16,18.7,24.7,06.5,04.5,0676.3,31.0
2021-08-12T11:18:00Z,00040200,00000000,0000.48,0000.35,0000.29,0000.46,-000.19,-000.17,0000.08,-000.30,0000.02,18.7,24.7,06.5,04.5,0676.3,31.0
2021-08-12T11:19:00Z,00040200,00000000,0000.74,0000.66,0000.02,0000.03,0000.07,0000.04,0000.27,0000.32,0000.03,18.6,24.7,06.5,04.5,0676.3,31.0
2021-08-12T11:20:00Z,00040200,00000000,0000.96,0000.52,0000.27,0000.31,0000.05,0000.07,0000.03,0000.32,0000.16,18.6,24.7,06.4,04.4,0676.3,31.0
2021-08-12T11:21:00Z,00040200,00000000,0000.26,0000.43,0000.29,0000.46,-000.02,-000.06,-000.47,-000.73,-000.41,18.6,24.7,06.3,04.4,0676.3,31.0
2021-08-12T11:22:00Z,00040200,00000000,0001.24,0000.11,0000.01,0000.45,-000.18,0000.06,0000.16,0000.06,-000.09,18.6,24.7,06.3,04.3,0676.3,31.0
2021-08-12T11:23:00Z,00040200,00000000,0000.51,0000.65,0000.39,0000.50,-000.19,0000.04,0000.45,0000.46,0000.47,18.6,24.7,06.3,04.3,0676.3,31.0
2021-08-12T11:24:00Z,00040200,00000000,0001.27,0000.22,0000.72,-000.03,0000.02,0000.18,-000.45,-000.27,-000.28,18.6,24.7,06.2,04.3,0676.3,31.0
2021-08-12T11:25:00Z,00040200,00000000,0000.86,0000.60,0000.56,0000.39,-000.06,0000.16,-000.22,0000.21,-000.09,18.6,24.7,06.2,04.2,0676.4,31.0
2021-08-12T11:26:00Z,00040200,00000000,0000.38,0000.01,0000.05,0000.22,0000.04,0000.15,0000.42,-000.51,-000.07,18.5,24.7,06.1,04.2,0676.4,31.0
2021-08-12T11:27:00Z,00040200,00000000,0001.20,0000.33,0000.01,0000.11,-000.00,0000.11,-000.27,0000.17,-000.03,18.5,24.6,06.2,04.3,0676.4,31.0
2021-08-12T11:28:00Z,00040200,00000000,0001.66,0000.55,0000.42,-000.35,-000.18,0000.37,0000.19,0000.04,0000.00,18.5,24.6,06.1,04.2,0676.4,31.0
2021-08-12T11:29:00Z,00040200,00000000,0001.56,0000.57,0000.23,0000.64,0000.06,-000.04,0000.02,-000.01,0000.09,18.5,24.6,06.0,04.2,0676.4,31.0
2021-08-12T11:30:00Z,00040200,00000000,0000.64,0000.26,0000.18,0000.32,-000.17,0000.15,-000.05,-000.62,-000.31,18.5,24.6,06.1,04.2,0676.4,31.0
2021-08-12T11:31:00Z,00040200,00000000,0000.36,0000.59,0000.51,0000.14,0000.21,0000.01,0000.10,0000.58,0000.24,18.5,24.6,06.1,04.2,0676.5,31.0
2021-08-12T11:32:00Z,00040200,00000000,0000.72,0000.37,0000.06,0000.35,0000.27,0000.20,0000.25,0000.54,0000.27,18.5,24.6,06.1,04.2,0676.5,31.0
2021-08-12T11:33:00Z,00040200,00000000,0000.88,0000.25,0000.23,0000.31,0000.19,0000.29,0000.16,-000.02,0000.24,18.5,24.6,06.1,04.2,0676.4,31.0
2021-08-12T11:34:00Z,00040200,00000000,0000.21,0000.56,0000.44,0000.28,0000.22,-000.12,0000.13,0000.15,0000.12,18.5,24.6,06.2,04.3,0676.4,31.0
2021-08-12T11:35:00Z,00040200,00000000,0000.84,0000.72,0000.43,0000.13,0000.01,0000.17,0000.04,-000.06,0000.17,18.5,24.6,06.4,04.4,0676.4,31.0
2021-08-12T11:36:00Z,00040200,00000000,0000.69,0000.23,0000.38,-000.06,-000.15,0000.27,0000.19,0000.55,0000.12,18.5,24.6,06.3,04.3,0676.4,31.0
2021-08-12T11:37:00Z,00040200,00000000,0001.35,0000.37,0000.30,-000.71,-000.05,0000.06,0000.41,-000.20,0000.23,18.5,24.6,06.4,04.4,0676.4,31.0
2021-08-12T11:38:00Z,00040200,00000000,0001.49,0000.08,0000.26,0000.67,0000.06,0000.03,0000.05,0000.52,-000.09,18.5,24.6,06.4,04.4,0676.4,31.0
2021-08-12T11:39:00Z,00040200,00000000,0000.99,0000.59,0000.27,-000.17,0000.17,-000.08,0000.03,-000.25,0000.09,18.5,24.6,06.4,04.4,0676.4,31.0
2021-08-12T11:40:00Z,00040200,00000000,0001.22,0000.68,0000.58,0000.75,-000.10,0000.15,0000.52,0000.57,0000.28,18.5,24.6,06.4,04.4,0676.4,31.0
2021-08-12T11:41:00Z,00040200,00000000,0001.40,0000.52,0000.41,-000.48,0000.14,0000.07,0000.01,0000.28,0000.28,18.5,24.5,06.5,04.5,0676.4,31.0
2021-08-12T11:42:00Z,00040200,00000000,0001.30,0000.23,0000.65,0000.44,0000.06,-000.08,0000.36,0000.07,0000.11,18.5,24.6,06.5,04.5,0676.4,30.9
2021-08-12T11:43:00Z,00040200,00000000,0000.10,0000.33,0000.39,0000.54,0000.09,0000.04,0000.11,-000.04,0000.08,18.5,24.6,06.5,04.5,0676.4,31.0
2021-08-12T11:44:00Z,00040200,00000000,0000.94,0000.72,-000.04,0000.08,0000.06,0000.03,-000.03,-000.02,0000.25,18.6,24.6,06.5,04.5,0676.4,31.0
2021-08-12T11:45:00Z,00040200,00000000,0000.91,0000.39,0000.37,0000.34,-000.07,0000.08,0000.24,0000.39,0000.37,18.6,24.6,06.5,04.5,0676.4,31.0
2021-08-12T11:46:00Z,00040200,00000000,0000.94,0000.03,0000.34,0000.37,-000.53,-000.04,0000.13,0000.13,-000.12,18.6,24.6,06.5,04.5,0676.4,31.0
2021-08-12T11:47:00Z,00040200,00000000,0000.79,0000.61,0000.06,0000.01,-000.20,-000.10,0000.30,0000.39,0000.30,18.6,24.6,06.5,04.5,0676.4,31.0
2021-08-12T11:48:00Z,00040200,00000000,0000.77,0000.34,0000.38,0000.47,-000.05,-000.02,-000.05,-000.01,-000.26,18.6,24.6,06.5,04.5,0676.4,31.0
2021-08-12T11:49:00Z,00040200,00000000,0000.54,0000.44,0000.17,-000.67,0000.00,0000.12,0000.33,0000.08,0000.29,18.6,24.7,06.6,04.5,0676.4,31.0
2021-08-12T11:50:00Z,00040200,00000000,0000.68,0000.65,0000.35,0000.15,0000.08,0000.04,0000.07,0000.02,0000.11,18.6,24.6,06.5,04.5,0676.4,31.0
2021-08-12T11:51:00Z,00040200,00000000,0000.53,0000.54,0000.37,0000.31,0000.29,-000.05,-000.03,0000.30,0000.15,18.6,24.6,06.5,04.5,0676.4,31.0
2021-08-12T11:52:00Z,00040200,00000000,0000.82,0000.53,0000.54,0000.07,0000.18,0000.27,0000.17,0000.21,0000.30,18.6,24.6,06.6,04.5,0676.4,31.0
2021-08-12T11:53:00Z,00040200,00000000,0001.12,0000.49,0000.45,0000.34,0000.05,0000.38,0000.46,0000.05,-000.13,18.6,24.7,06.4,04.5,0676.5,31.0
2021-08-12T11:54:00Z,00040200,00000000,0000.99,0000.30,0000.38,0000.07,-000.07,0000.11,-000.06,0000.08,-000.06,18.6,24.7,06.6,04.5,0676.4,31.0
2021-08-12T11:55:00Z,00040200,00000000,0000.44,0000.61,0000.40,0000.35,-000.07,0000.09,0000.00,-000.05,0000.10,18.6,24.6,06.5,04.5,0676.4,31.0
2021-08-12T11:56:00Z,00040200,00000000,0000.77,0000.37,0000.25,-000.08,-000.02,-000.10,0000.17,-000.09,0000.03,18.6,24.7,06.6,04.5,0676.4,31.0
2021-08-12T11:57:00Z,00040200,40000000,,,,,,,-000.16,0000.43,0000.17,18.7,24.7,06.4,04.4,0676.3,31.0
2021-08-12T11:58:00Z,00040200,60000000,,,,,,,-000.20,-000.61,-000.38,18.4,24.8,06.5,04.4,0675.4,31.0
2021-08-12T11:59:00Z,00040200,20000000,,,,,,,0000.27,0000.22,0000.14,18.4,24.9,06.5,04.4,0675.4,31.0
